Location: Casteau
(50.5142°N, 4.0161°E)
Time: 09:31:34
(UTC+00:00)

Lacrosse 5 rocket - Pass Details

Date: 18 September 2020
Orbit: 460 x 636 km, 57.0° (Epoch: 27 October)

Event Time Altitude Azimuth Distance (km) Brightness Sun altitude
Rises 19:45:49 0° 274° (W) 2,773 6.1 -18.5°
Reaches altitude 10° 19:48:09 10° 282° (WNW) 1,905 5.2 -18.8°
Maximum altitude 19:52:13 37° 351° (N) 938 2.7 -19.4°
Enters shadow 19:55:07 18° 51° (NE) 1,529 3.3 -19.8°
